This is the latest recevied weather packets stored in our database for station/object EA1IQY-10. If no packets are shown the sender has not sent any weather packets the latest 10 day(s).
| Time | Temp. | Humidity | Pressure | Rain* | Wind** | Luminosity | Snow |
|---|---|---|---|---|---|---|---|
| 1777472830 | 22.22° C | 100% | 996 hPa | - | - | - | - |
| 1777471929 | 21.67° C | 100% | 995.9 hPa | - | - | - | - |
| 1777471029 | 21.67° C | 100% | 995.8 hPa | - | - | - | - |
| 1777470129 | 21.11° C | 100% | 995.8 hPa | - | - | - | - |
| 1777469262 | 19.44° C | 100% | 995.7 hPa | - | - | - | - |
| 1777469229 | 19.44° C | 100% | 995.7 hPa | - | - | - | - |
| 1777468329 | 19.44° C | 100% | 995.7 hPa | - | - | - | - |
| 1777467429 | 22.22° C | 100% | 995.7 hPa | - | - | - | - |
| 1777466529 | 19.44° C | 100% | 995.6 hPa | - | - | - | - |
| 1777465629 | 21.11° C | 100% | 995.6 hPa | - | - | - | - |
| 1777464728 | 20.56° C | 100% | 995.5 hPa | - | - | - | - |
| 1777463828 | 21.11° C | 100% | 995.6 hPa | - | - | - | - |
| 1777462928 | 18.89° C | 100% | 995.6 hPa | - | - | - | - |
| 1777462028 | 20° C | 100% | 995.5 hPa | - | - | - | - |
| 1777461128 | 18.89° C | 100% | 995.4 hPa | - | - | - | - |
| 1777460228 | 18.89° C | 100% | 995.5 hPa | - | - | - | - |
| 1777459328 | 19.44° C | 100% | 995.3 hPa | - | - | - | - |
| 1777458427 | 19.44° C | 100% | 995.5 hPa | - | - | - | - |
| 1777457527 | 17.22° C | 100% | 995.4 hPa | - | - | - | - |
| 1777456627 | 18.33° C | 100% | 995.3 hPa | - | - | - | - |
| 1777455727 | 18.89° C | 100% | 995.4 hPa | - | - | - | - |
| 1777454827 | 18.89° C | 100% | 995.4 hPa | - | - | - | - |
| 1777453927 | 18.33° C | 100% | 995.5 hPa | - | - | - | - |
| 1777453027 | 20.56° C | 100% | 995.5 hPa | - | - | - | - |
| 1777452170 | 20° C | 100% | 995.6 hPa | - | - | - | - |
* Rain since midnight (hover to see other rain measurements)
** Current wind speed in m/s (hover to see current wind gust speed)